[[{"header":{"parameterUnit":"m.s-1","parameterCategory":1,"la1":30.2991,"la2":30.254,"lo1":-89.0895,"lo2":-89.0444,"dy":0.0017,"dx":0.0017,"nx":28,"ny":28,"refTime":"2024-02-27T09:00:00:Z","depth":0,"parameterNumber":2,"parameterNumberName":"U-component_of_WINDS"},"data":[0,0,0,0,0,0,0,0,0,0,0,0,0,0,0,0,0,0,0,0,0,0,0,0,0,0,0,0,0,0,0,0,0,0,0,0,0,0,0,0,0,0,0,0,0,0,0,0,0,0,0,0,0,0,0,0,0,0,-3.8776,-3.8776,0,-3.8793,-3.8793,-3.8793,-3.8712,-3.871,-3.8707,-3.8705,-3.8723,-3.8726,-3.8728,0,0,0,0,0,0,0,0,0,0,0,0,0,-3.8673,-3.8676,-3.8776,-3.8776,-3.8776,-3.8793,-3.8793,-3.8793,-3.8712,-3.8709,-3.8707,-3.8704,-3.8722,-3.8725,-3.8728,0,0,0,0,0,0,0,0,0,0,0,0,0,-3.8707,-3.8676,-3.8776,-3.8738,-3.8735,-3.8793,-3.8793,-3.8793,-3.8713,-3.8709,-3.8706,-3.8703,-3.8721,-3.8725,-3.8729,-3.8824,0,0,-3.8741,-3.8743,0,0,0,0,0,0,0,0,-3.8705,-3.8711,-3.8743,-3.8741,-3.8737,-3.8747,-3.8763,-3.8804,-3.8714,-3.8721,-3.8705,-3.8701,-3.8734,-3.8736,-3.8747,-3.8825,-3.8826,-3.8742,-3.8744,-3.8746,-3.8747,0,0,0,0,0,0,0,-3.8703,-3.8709,-3.8782,-3.8744,-3.874,-3.872,-3.8721,-3.8771,-3.8747,-3.872,-3.8714,-3.8717,-3.8731,-3.8744,-3.8747,-3.8826,-3.8741,-3.8745,-3.8747,-3.8749,-3.8983,-3.8986,0,0,0,0,0,0,-3.8705,-3.8708,-3.8782,-3.8783,-3.8712,-3.8725,-3.8726,-3.8747,-3.8746,-3.8743,-3.872,-3.8714,-3.8739,-3.8743,-3.8748,-3.8859,-3.8746,-3.8749,-3.8752,-3.8979,-3.8983,-3.8988,0,0,0,0,0,0,-3.8704,-3.8713,-3.8781,-3.8744,-3.8751,-3.873,-3.8755,-3.8749,-3.8762,-3.8746,-3.8742,-3.8738,-3.8736,-3.8742,-3.8806,-3.8859,-3.8751,-3.8755,-3.8974,-3.898,-3.8985,-3.9083,0,0,0,0,0,0,-3.8701,-3.8713,-3.8749,-3.8745,-3.8753,-3.884,-3.8758,-3.8752,-3.8769,-3.876,-3.8761,-3.8758,-3.8734,-3.88,-3.881,-3.8862,-3.8758,-3.897,-3.8977,-3.8984,-3.9075,-3.9092,-3.9106,0,0,0,0,0,-3.8698,-3.8776,-3.8751,-3.8761,-3.8798,-3.8843,-3.8847,-3.8818,-3.8773,-3.8809,-3.8799,-3.8758,-3.8851,-3.8807,-3.8817,-3.8872,-3.8966,-3.8975,-3.8983,-3.9069,-3.9089,-3.9105,0,0,0,0,0,0,-3.8787,-3.8775,-3.8747,-3.8827,-3.8836,-3.8829,-3.8874,-3.884,-3.8862,-3.8853,-3.8815,-3.8816,-3.8887,-3.8885,-3.8837,-3.8964,-3.8901,-3.8912,-3.8962,-3.8981,-3.8996,-3.8995,-3.8761,0,0,0,0,0,-3.8816,-3.8853,-3.884,-3.8912,-3.8918,-3.8895,-3.8914,-3.889,-3.8898,-3.8902,-3.8896,-3.8906,-3.8938,-3.8959,-3.8987,-3.9074,-3.9073,-3.9117,-3.9132,-3.9144,-3.9155,-3.92,-3.9219,-3.9016,-3.9016,-3.9015,0,0,-3.8876,-3.8874,-3.89,-3.893,-3.8934,-3.8974,-3.8899,-3.8944,-3.8973,-3.8909,-3.8968,-3.8965,-3.8973,-3.9049,-3.9082,-3.9051,-3.921,-3.9155,-3.9165,-3.9169,-3.9211,-3.923,-3.9248,-3.9021,-3.902,-3.9019,0,0,-3.9006,-3.9008,-3.9068,-3.9074,-3.9081,-3.9066,-3.908,-3.9077,-3.9073,-3.9132,-3.9084,-3.9118,-3.9173,-3.918,-3.9192,-3.9323,-3.9286,-3.9334,-3.9413,-3.9458,-3.9474,-3.9488,-3.9535,-3.9553,-3.9344,-3.9344,-3.9344,0,-3.908,-3.9138,-3.9103,-3.9151,-3.9165,-3.9108,-3.9168,-3.9176,-3.9192,-3.9203,-3.9167,-3.9234,-3.9236,-3.9313,-3.9345,-3.9356,-3.9371,-3.9334,-3.9475,-3.9488,-3.9501,-3.9546,-3.9563,-3.935,-3.9349,-3.9348,-3.9348,0,-3.9228,-3.9269,-3.9316,-3.9333,-3.9352,-3.9406,-3.938,-3.9403,-3.9378,-3.9366,-3.9426,-3.9426,-3.9453,-3.9469,-3.9444,-3.9542,-3.9522,-3.9481,-3.9417,-3.9527,-3.9568,-3.9585,-3.9358,-3.9356,-3.9354,-3.9353,0,0,-3.9416,-3.9413,-3.9431,-3.9437,-3.9441,-3.9471,-3.9522,-3.9548,-3.9569,-3.9582,-3.9624,-3.9671,-3.9633,-3.9645,-3.9621,-3.966,-3.9765,-3.9614,-3.9614,-3.9642,-3.9872,-3.9904,-3.9924,-3.9739,-3.9742,-3.9745,-3.9872,0,-3.9544,-3.963,-3.96,-3.9689,-3.9725,-3.9671,-3.9715,-3.9722,-3.9712,-3.9741,-3.973,-3.9764,-3.9711,-3.9718,-3.9755,-3.9744,-3.981,-3.9735,-3.9778,-3.978,-3.9778,-3.9945,-3.9979,-4.0099,-3.9887,-3.989,-3.9892,0,-3.9705,-3.9723,-3.9816,-3.9812,-3.9826,-3.9867,-3.9887,-3.9916,-3.9922,-3.9912,-3.9926,-3.9893,-3.9942,-3.9878,-3.9945,-3.9894,-3.991,-3.9907,-3.9911,-3.9915,-3.9843,-3.9954,-4.0136,-4.0154,-3.9917,-3.9915,-3.9913,0,-3.9833,-3.9881,-3.9942,-3.995,-3.9947,-3.9977,-3.9977,-3.998,-3.9997,-4.0015,-4.0026,-4.0049,-4.0063,-4.0082,-4.0056,-4.0011,-4.0127,-4.006,-4.012,-4.0121,-4.0148,-4.0146,-4.0335,-4.0157,-4.0157,-4.0157,-4.0156,0,-3.9979,-4.0037,-4.0,-4.0038,-4.0101,-4.0066,-4.013,-4.0124,-4.0127,-4.0162,-4.0116,-4.0151,-4.0114,-4.0145,-4.0125,-4.0183,-4.019,-4.0183,-4.0177,-4.0187,-4.0188,-4.0198,-4.0189,-4.0161,-4.016,-4.0159,-4.0159,0,-4.0133,-4.0111,-4.0174,-4.0166,-4.0165,-4.0212,-4.0205,-4.024,-4.0225,-4.0271,-4.028,-4.0258,-4.0292,-4.0267,-4.0301,-4.0287,-4.0365,-4.0347,-4.0363,-4.0358,-4.0419,-4.0414,-4.0621,-4.0646,-4.0452,-4.0454,-4.0455,0,-4.0228,-4.0272,-4.0268,-4.0289,-4.0292,-4.0325,-4.0342,-4.0308,-4.0328,-4.0338,-4.0371,-4.0401,-4.0423,-4.0479,-4.0467,-4.0492,-4.0475,-4.0545,-4.0478,-4.0487,-4.0476,-4.0474,-4.0478,-4.0559,-4.0562,-4.0564,-4.0565,0,-4.0399,-4.0386,-4.0412,-4.0434,-4.0455,-4.0471,-4.0483,-4.0503,-4.0468,-4.0493,-4.0526,-4.0543,-4.0577,-4.0607,-4.0628,-4.0628,-4.0591,-4.0586,-4.0601,-4.0613,-4.062,-4.0617,-4.04,-4.0582,-4.058,-4.0579,-4.0578,-4.0577,-4.0527,-4.0563,-4.0566,-4.0596,-4.0602,-4.0614,-4.0646,-4.0635,-4.0663,-4.0687,-4.0666,-4.0706,-4.071,-4.0734,-4.0739,-4.077,-4.074,-4.0763,-4.0768,-4.0774,-4.0783,-4.0615,-4.0773,-4.0773,-4.0772,-4.0772,-4.0771,0,-4.0696,-4.0695,-4.0723,-4.0741,-4.0765,-4.0727,-4.0738,-4.0761,-4.0797,-4.0804,-4.0826,-4.0865,-4.0893,-4.0882,-4.0908,-4.0935,-4.0918,-4.0942,-4.094,-4.0941,-4.0807,-4.0792,-4.0955,-4.0955,-4.0955,-4.0955,-4.0955,-4.0955,-4.0787,-4.0845,-4.0832,-4.0892,-4.089,-4.0929,-4.0939,-4.095,-4.0955,-4.1,-4.1023,-4.1016,-4.1016,-4.104,-4.1065,-4.106,-4.1072,-4.1102,-4.1093,-4.0968,-4.095,-4.0933,-4.0918,-4.1105,-4.1105,-4.1223,-4.1224,-4.1225]},{"header":{"parameterUnit":"m.s-1","parameterCategory":1,"la1":30.2991,"la2":30.254,"lo1":-89.0895,"lo2":-89.0444,"dy":0.0017,"dx":0.0017,"nx":28,"ny":28,"refTime":"2024-02-27T09:00:00:Z","depth":0,"parameterNumber":3,"parameterNumberName":"V-component_of_WINDS"},"data":[0,0,0,0,0,0,0,0,0,0,0,0,0,0,0,0,0,0,0,0,0,0,0,0,0,0,0,0,0,0,0,0,0,0,0,0,0,0,0,0,0,0,0,0,0,0,0,0,0,0,0,0,0,0,0,0,0,0,-9.6003,-9.6004,0,-9.6116,-9.6118,-9.6119,-9.6011,-9.6007,-9.6002,-9.5998,-9.6107,-9.6114,-9.612,0,0,0,0,0,0,0,0,0,0,0,0,0,-9.5686,-9.5693,-9.6003,-9.6004,-9.6006,-9.6116,-9.6118,-9.6119,-9.6012,-9.6006,-9.6001,-9.5996,-9.6105,-9.6113,-9.6121,0,0,0,0,0,0,0,0,0,0,0,0,0,-9.5814,-9.5695,-9.6003,-9.5966,-9.5963,-9.6116,-9.6118,-9.612,-9.6013,-9.6006,-9.6,-9.5994,-9.6102,-9.6112,-9.6122,-9.6315,0,0,-9.6154,-9.6158,0,0,0,0,0,0,0,0,-9.5807,-9.5826,-9.597,-9.5968,-9.5966,-9.6043,-9.6046,-9.6185,-9.6014,-9.5994,-9.5998,-9.5991,-9.609,-9.6101,-9.6136,-9.632,-9.6324,-9.6155,-9.6161,-9.6165,-9.6168,0,0,0,0,0,0,0,-9.5798,-9.582,-9.6047,-9.5972,-9.597,-9.5941,-9.5952,-9.6072,-9.6076,-9.5995,-9.5988,-9.6003,-9.6088,-9.6127,-9.6138,-9.6326,-9.6154,-9.6164,-9.617,-9.6174,-9.6673,-9.668,0,0,0,0,0,0,-9.5794,-9.5814,-9.6044,-9.6051,-9.5869,-9.5952,-9.5964,-9.6025,-9.6075,-9.6077,-9.6008,-9.5997,-9.6112,-9.6126,-9.6142,-9.6371,-9.6165,-9.6175,-9.6181,-9.6666,-9.6674,-9.6682,0,0,0,0,0,0,-9.5788,-9.5816,-9.6039,-9.593,-9.5957,-9.5964,-9.6033,-9.603,-9.6069,-9.6085,-9.6085,-9.6047,-9.6108,-9.6127,-9.6273,-9.6373,-9.618,-9.6189,-9.6658,-9.6669,-9.6678,-9.6831,0,0,0,0,0,0,-9.5779,-9.5814,-9.5889,-9.5933,-9.5963,-9.6172,-9.6039,-9.6037,-9.6088,-9.6075,-9.6122,-9.6123,-9.6104,-9.6258,-9.6283,-9.6384,-9.6197,-9.6649,-9.6662,-9.6675,-9.6817,-9.6845,-9.687,0,0,0,0,0,-9.5769,-9.5926,-9.5894,-9.5922,-9.6057,-9.6177,-9.6194,-9.6172,-9.6096,-9.6171,-9.6181,-9.6121,-9.6358,-9.6274,-9.6301,-9.6407,-9.6642,-9.6659,-9.6674,-9.6805,-9.684,-9.6869,0,0,0,0,0,0,-9.589,-9.5931,-9.5895,-9.6072,-9.6123,-9.6159,-9.6252,-9.6209,-9.628,-9.6264,-9.6231,-9.6242,-9.6397,-9.6416,-9.6322,-9.6595,-9.6488,-9.651,-9.6578,-9.6611,-9.6637,-9.6629,-9.6206,0,0,0,0,0,-9.5939,-9.6036,-9.6064,-9.6217,-9.6245,-9.6245,-9.6296,-9.6275,-9.6324,-9.6344,-9.6365,-9.6414,-9.6499,-9.6556,-9.6635,-9.6819,-9.6827,-9.6904,-9.6931,-9.6952,-9.6972,-9.7071,-9.7106,-9.6734,-9.6734,-9.6734,0,0,-9.6038,-9.6072,-9.6134,-9.6243,-9.6279,-9.6379,-9.6263,-9.6372,-9.6445,-9.636,-9.65,-9.6517,-9.6569,-9.6736,-9.6809,-9.6756,-9.7076,-9.6972,-9.699,-9.6997,-9.7091,-9.7126,-9.7157,-9.6745,-9.6743,-9.6741,0,0,-9.6269,-9.6305,-9.6437,-9.6477,-9.6535,-9.6534,-9.6566,-9.661,-9.6619,-9.6759,-9.6698,-9.6782,-9.693,-9.697,-9.7009,-9.7257,-9.7205,-9.7284,-9.7422,-9.7518,-9.7548,-9.7573,-9.7663,-9.7695,-9.7303,-9.7303,-9.7304,0,-9.6385,-9.6534,-9.6509,-9.6625,-9.6674,-9.6604,-9.6737,-9.6775,-9.6855,-9.689,-9.6829,-9.7014,-9.7043,-9.7218,-9.7279,-9.7313,-9.7348,-9.7278,-9.7546,-9.7572,-9.7595,-9.768,-9.7713,-9.7313,-9.7312,-9.7311,-9.731,0,-9.6673,-9.6778,-9.6877,-9.696,-9.702,-9.7143,-9.7135,-9.7198,-9.7172,-9.7177,-9.732,-9.7354,-9.7439,-9.7479,-9.7452,-9.7651,-9.7616,-9.7551,-9.7442,-9.764,-9.7719,-9.7751,-9.7326,-9.7323,-9.732,-9.7317,0,0,-9.6985,-9.7054,-9.7091,-9.7128,-9.7187,-9.7266,-9.7385,-9.7472,-9.7527,-9.7584,-9.7683,-9.781,-9.7751,-9.7796,-9.7773,-9.7858,-9.8054,-9.7783,-9.7784,-9.7833,-9.8274,-9.8323,-9.8361,-9.8019,-9.8025,-9.803,-9.827,0,-9.7219,-9.7431,-9.7412,-9.7611,-9.7707,-9.7642,-9.7746,-9.7793,-9.78,-9.7881,-9.7888,-9.7979,-9.7894,-9.7921,-9.8003,-9.8013,-9.8142,-9.7995,-9.8109,-9.8114,-9.81,-9.8402,-9.8454,-9.8679,-9.8301,-9.8306,-9.8309,0,-9.7521,-9.7593,-9.7803,-9.7849,-9.7888,-9.7982,-9.806,-9.8139,-9.8189,-9.8189,-9.8241,-9.8204,-9.8322,-9.821,-9.8372,-9.8273,-9.8318,-9.833,-9.8338,-9.8348,-9.8224,-9.8421,-9.875,-9.8784,-9.8358,-9.8354,-9.835,0,-9.7729,-9.7877,-9.8022,-9.8055,-9.8112,-9.818,-9.8206,-9.8251,-9.8305,-9.8371,-9.8405,-9.8484,-9.8528,-9.8589,-9.8573,-9.8494,-9.8739,-9.8626,-9.8741,-9.8742,-9.8796,-9.8793,-9.9138,-9.8824,-9.8824,-9.8823,-9.8823,0,-9.7993,-9.8124,-9.8116,-9.8206,-9.835,-9.8326,-9.8469,-9.8486,-9.8527,-9.8617,-9.8564,-9.8649,-9.8623,-9.8707,-9.8695,-9.8831,-9.885,-9.8852,-9.8848,-9.8858,-9.8858,-9.8887,-9.8872,-9.8832,-9.883,-9.8828,-9.8827,0,-9.8249,-9.825,-9.8404,-9.8446,-9.846,-9.8564,-9.8599,-9.8682,-9.8686,-9.88,-9.8826,-9.8831,-9.8926,-9.8917,-9.9023,-9.9015,-9.9184,-9.916,-9.9168,-9.9163,-9.9279,-9.9269,-9.9656,-9.9705,-9.9359,-9.9363,-9.9365,0,-9.8419,-9.8518,-9.8572,-9.8631,-9.8663,-9.8756,-9.8811,-9.8791,-9.885,-9.8917,-9.8992,-9.9083,-9.9155,-9.9309,-9.9321,-9.9402,-9.938,-9.951,-9.9392,-9.9399,-9.9383,-9.9378,-9.9388,-9.9534,-9.9537,-9.9541,-9.9543,0,-9.8719,-9.8715,-9.8798,-9.8882,-9.895,-9.9014,-9.9072,-9.9122,-9.9108,-9.9176,-9.9275,-9.9331,-9.9441,-9.9532,-9.9609,-9.9632,-9.9586,-9.9581,-9.9611,-9.9623,-9.9624,-9.9626,-9.9233,-9.9572,-9.9569,-9.9567,-9.9565,-9.9564,-9.8937,-9.9024,-9.9076,-9.917,-9.9213,-9.9269,-9.935,-9.9365,-9.9448,-9.9538,-9.952,-9.9631,-9.9678,-9.9777,-9.9809,-9.9894,-9.9847,-9.9891,-9.9903,-9.9915,-9.9929,-9.9611,-9.9908,-9.9907,-9.9906,-9.9905,-9.9905,0,-9.9236,-9.9267,-9.9354,-9.9439,-9.9514,-9.9466,-9.9528,-9.9592,-9.9692,-9.9741,-9.9814,-9.9927,-10.0016,-10.0035,-10.0119,-10.0183,-10.0164,-10.0206,-10.0201,-10.0207,-9.9966,-9.9931,-10.022,-10.022,-10.022,-10.022,-10.022,-10.022,-9.94,-9.9544,-9.9546,-9.971,-9.9739,-9.985,-9.989,-9.994,-9.998,-10.011,-10.0185,-10.0198,-10.0235,-10.0321,-10.0399,-10.0402,-10.0436,-10.0487,-10.0482,-10.0256,-10.0224,-10.0194,-10.0162,-10.0494,-10.0495,-10.0716,-10.0718,-10.072]}]]